• In Österreich
  • Länderverzeichnis
  • Für 7 Tage
  • Wassertemperatur
  • Satellitenkarten
  • Wetterkarte
  • News
  • Widgets
  • user-avatar
    Anmelden

    Stündliche Wetter Kernave

    Heute, 21 Oktober, Sonntag

    Zeit Temperatur Niederschläge Wind Luftdruck Luftfeuchtigkeit
    00:00 +6°C° 0 mm 0 m/S 760 mmHg 85%
    01:00 +5°C° 0 mm 0 m/S 760 mmHg 86%
    02:00 +5°C° 0 mm 0 m/S 760 mmHg 88%
    03:00 +5°C° 0 mm 0 m/S 760 mmHg 89%
    04:00 +4°C° 0 mm 0 m/S 760 mmHg 90%
    05:00 +4°C° 0 mm 0 m/S 760 mmHg 91%
    06:00 +4°C° 0 mm 0 m/S 761 mmHg 91%
    07:00 +4°C° 0 mm 0 m/S 761 mmHg 91%
    08:00 +5°C° 0 mm 0 m/S 761 mmHg 91%
    09:00 +6°C° 0 mm 0 m/S 762 mmHg 84%
    10:00 +8°C° 0 mm 0 m/S 762 mmHg 78%
    11:00 +10°C° 0 mm 1 m/S 762 mmHg 71%
    12:00 +11°C° 0 mm 1 m/S 762 mmHg 69%
    13:00 +12°C° 0 mm 1 m/S 762 mmHg 67%
    14:00 +12°C° 0 mm 1 m/S 762 mmHg 64%
    15:00 +11°C° 0 mm 1 m/S 762 mmHg 69%
    16:00 +10°C° 0 mm 1 m/S 762 mmHg 73%
    17:00 +9°C° 0 mm 1 m/S 762 mmHg 78%
    18:00 +9°C° 0 mm 1 m/S 762 mmHg 81%
    19:00 +8°C° 0 mm 1 m/S 762 mmHg 83%
    20:00 +7°C° 0 mm 1 m/S 762 mmHg 86%
    21:00 +7°C° 0 mm 1 m/S 762 mmHg 87%
    22:00 +6°C° 0 mm 2 m/S 762 mmHg 89%
    23:00 +6°C° 0 mm 2 m/S 762 mmHg 90%

    Morgen, 22 Oktober, Montag

    Zeit Temperatur Niederschläge Wind Luftdruck Luftfeuchtigkeit
    00:00 +5°C° 0 mm 2 m/S 762 mmHg 90%
    01:00 +5°C° 0 mm 2 m/S 761 mmHg 91%
    02:00 +5°C° 0 mm 2 m/S 761 mmHg 91%
    03:00 +5°C° 0 mm 2 m/S 761 mmHg 92%
    04:00 +4°C° 0 mm 3 m/S 760 mmHg 92%
    05:00 +4°C° 0 mm 3 m/S 760 mmHg 92%
    06:00 +4°C° 0 mm 3 m/S 760 mmHg 92%
    07:00 +4°C° 0 mm 3 m/S 760 mmHg 91%
    08:00 +4°C° 0 mm 3 m/S 759 mmHg 91%
    09:00 +6°C° 0 mm 4 m/S 759 mmHg 85%
    10:00 +7°C° 0 mm 4 m/S 759 mmHg 79%
    11:00 +10°C° 0 mm 4 m/S 758 mmHg 74%
    12:00 +9°C° 0 mm 5 m/S 758 mmHg 71%
    13:00 +10°C° 0 mm 5 m/S 757 mmHg 69%
    14:00 +10°C° 0 mm 5 m/S 756 mmHg 66%
    15:00 +10°C° 0.1 mm 5 m/S 756 mmHg 70%
    16:00 +10°C° 0.1 mm 4 m/S 755 mmHg 74%
    17:00 +10°C° 0.1 mm 4 m/S 755 mmHg 78%
    18:00 +10°C° 0.4 mm 4 m/S 755 mmHg 82%
    19:00 +8°C° 0.4 mm 4 m/S 755 mmHg 85%
    20:00 +8°C° 0.4 mm 4 m/S 755 mmHg 89%
    21:00 +7°C° 0.1 mm 4 m/S 755 mmHg 88%
    22:00 +7°C° 0.1 mm 4 m/S 755 mmHg 87%
    23:00 +6°C° 0.1 mm 4 m/S 755 mmHg 87%

    übermorgen, 23 Oktober, Dienstag

    Zeit Temperatur Niederschläge Wind Luftdruck Luftfeuchtigkeit
    00:00 +5°C° 0 mm 3 m/S 755 mmHg 87%
    01:00 +4°C° 0 mm 3 m/S 755 mmHg 88%
    02:00 +3°C° 0 mm 3 m/S 755 mmHg 89%
    03:00 +4°C° 0 mm 2 m/S 755 mmHg 88%
    04:00 +4°C° 0 mm 2 m/S 754 mmHg 87%
    05:00 +3°C° 0 mm 2 m/S 754 mmHg 87%
    06:00 +3°C° 0 mm 2 m/S 753 mmHg 86%
    07:00 +3°C° 0 mm 3 m/S 753 mmHg 86%
    08:00 +3°C° 0 mm 3 m/S 753 mmHg 85%
    09:00 +4°C° 0 mm 3 m/S 752 mmHg 81%
    10:00 +5°C° 0 mm 4 m/S 751 mmHg 76%
    11:00 +7°C° 0 mm 5 m/S 750 mmHg 71%
    12:00 +7°C° 0 mm 6 m/S 748 mmHg 70%
    13:00 +7°C° 0 mm 6 m/S 747 mmHg 68%
    14:00 +8°C° 0 mm 7 m/S 745 mmHg 67%
    15:00 +6°C° 0.5 mm 7 m/S 743 mmHg 70%
    16:00 +5°C° 0.5 mm 8 m/S 742 mmHg 73%
    17:00 +5°C° 0.5 mm 8 m/S 740 mmHg 76%
    18:00 +5°C° 1.2 mm 8 m/S 738 mmHg 79%
    19:00 +4°C° 1.2 mm 8 m/S 736 mmHg 81%
    20:00 +4°C° 1.2 mm 8 m/S 734 mmHg 83%
    21:00 +4°C° 1.4 mm 8 m/S 733 mmHg 85%
    22:00 +4°C° 1.4 mm 7 m/S 732 mmHg 87%
    23:00 +5°C° 1.4 mm 6 m/S 730 mmHg 89%

    24 Oktober, Mittwoch

    Zeit Temperatur Niederschläge Wind Luftdruck Luftfeuchtigkeit
    00:00 +5°C° 0.8 mm 6 m/S 730 mmHg 88%
    01:00 +5°C° 0.8 mm 6 m/S 730 mmHg 88%
    02:00 +5°C° 0.8 mm 7 m/S 729 mmHg 87%
    03:00 +5°C° 0.1 mm 7 m/S 730 mmHg 83%
    04:00 +4°C° 0.1 mm 7 m/S 730 mmHg 79%
    05:00 +3°C° 0.1 mm 7 m/S 731 mmHg 75%
    06:00 +2°C° 0 mm 7 m/S 731 mmHg 76%
    07:00 +2°C° 0 mm 7 m/S 732 mmHg 77%
    08:00 +2°C° 0 mm 7 m/S 732 mmHg 77%
    09:00 +2°C° 0.3 mm 7 m/S 732 mmHg 76%
    10:00 +3°C° 0.3 mm 7 m/S 732 mmHg 75%
    11:00 +4°C° 0.3 mm 7 m/S 732 mmHg 74%
    12:00 +4°C° 0.6 mm 7 m/S 732 mmHg 76%
    13:00 +4°C° 0.6 mm 7 m/S 732 mmHg 78%
    14:00 +4°C° 0.6 mm 7 m/S 731 mmHg 81%
    15:00 +4°C° 0.4 mm 7 m/S 732 mmHg 81%
    16:00 +5°C° 0.4 mm 7 m/S 732 mmHg 81%
    17:00 +5°C° 0.4 mm 7 m/S 733 mmHg 81%
    18:00 +4°C° 0.3 mm 7 m/S 733 mmHg 83%
    19:00 +4°C° 0.3 mm 7 m/S 734 mmHg 85%
    20:00 +4°C° 0.3 mm 6 m/S 735 mmHg 87%
    21:00 +4°C° 0.3 mm 7 m/S 736 mmHg 85%
    22:00 +4°C° 0.3 mm 7 m/S 736 mmHg 83%
    23:00 +4°C° 0.3 mm 8 m/S 737 mmHg 80%

    25 Oktober, Donnerstag

    Zeit Temperatur Niederschläge Wind Luftdruck Luftfeuchtigkeit
    00:00 +4°C° 0.1 mm 8 m/S 738 mmHg 79%
    01:00 +2°C° 0.1 mm 8 m/S 738 mmHg 77%
    02:00 +3°C° 0.1 mm 7 m/S 738 mmHg 76%
    03:00 +3°C° 0 mm 7 m/S 739 mmHg 78%
    04:00 +2°C° 0 mm 7 m/S 739 mmHg 79%
    05:00 +2°C° 0 mm 7 m/S 739 mmHg 81%
    06:00 +2°C° 0 mm 7 m/S 740 mmHg 81%
    07:00 +2°C° 0 mm 6 m/S 740 mmHg 82%
    08:00 +2°C° 0 mm 6 m/S 740 mmHg 82%
    09:00 +3°C° 0 mm 6 m/S 740 mmHg 78%
    10:00 +4°C° 0 mm 6 m/S 741 mmHg 75%
    11:00 +4°C° 0 mm 6 m/S 741 mmHg 71%
    12:00 +6°C° 0 mm 5 m/S 741 mmHg 68%
    13:00 +6°C° 0 mm 5 m/S 741 mmHg 66%
    14:00 +6°C° 0 mm 5 m/S 741 mmHg 63%
    15:00 +5°C° 0 mm 4 m/S 741 mmHg 66%
    16:00 +5°C° 0 mm 4 m/S 741 mmHg 69%
    17:00 +4°C° 0 mm 3 m/S 741 mmHg 71%
    18:00 +4°C° 0 mm 3 m/S 741 mmHg 74%
    19:00 +4°C° 0 mm 3 m/S 742 mmHg 76%
    20:00 +5°C° 0 mm 2 m/S 742 mmHg 78%
    21:00 +4°C° 0 mm 2 m/S 742 mmHg 81%
    22:00 +4°C° 0 mm 2 m/S 742 mmHg 84%
    23:00 +4°C° 0 mm 2 m/S 742 mmHg 87%

    26 Oktober, Freitag

    Zeit Temperatur Niederschläge Wind Luftdruck Luftfeuchtigkeit
    00:00 +4°C° 0 mm 2 m/S 742 mmHg 89%
    01:00 +3°C° 0 mm 3 m/S 742 mmHg 90%
    02:00 +3°C° 0 mm 3 m/S 742 mmHg 92%
    03:00 +3°C° 0.1 mm 3 m/S 742 mmHg 92%
    04:00 +3°C° 0.1 mm 3 m/S 742 mmHg 93%
    05:00 +3°C° 0.1 mm 3 m/S 742 mmHg 93%
    06:00 +3°C° 0 mm 3 m/S 742 mmHg 93%
    07:00 +3°C° 0 mm 3 m/S 742 mmHg 94%
    08:00 +2°C° 0 mm 3 m/S 742 mmHg 94%
    09:00 +5°C° 0 mm 2 m/S 742 mmHg 88%
    10:00 +6°C° 0 mm 2 m/S 743 mmHg 83%
    11:00 +7°C° 0 mm 2 m/S 743 mmHg 77%
    12:00 +8°C° 0 mm 2 m/S 743 mmHg 74%
    13:00 +9°C° 0 mm 2 m/S 743 mmHg 71%
    14:00 +9°C° 0 mm 2 m/S 742 mmHg 69%
    15:00 +9°C° 0 mm 2 m/S 742 mmHg 74%
    16:00 +8°C° 0 mm 2 m/S 742 mmHg 79%
    17:00 +7°C° 0 mm 2 m/S 742 mmHg 85%
    18:00 +7°C° 0.4 mm 2 m/S 742 mmHg 87%
    19:00 +7°C° 0.4 mm 2 m/S 742 mmHg 90%
    20:00 +7°C° 0.4 mm 3 m/S 742 mmHg 92%
    21:00 +6°C° 0.9 mm 4 m/S 741 mmHg 92%
    22:00 +7°C° 0.9 mm 4 m/S 741 mmHg 91%
    23:00 +7°C° 0.9 mm 5 m/S 741 mmHg 90%
    Mehr zeigen